Theta_e
298 297 297 296 296 295 295 295 295 294 294 294 294 294 294 293 293 293 293 292 292 292 292 291 291 291 291 291 291 291 293 294 296 296 296 297 296 296 296 296 297 298 297
296 296 295 295 295 295 294 293 293 294 293 293 292 292 292 292 291 291 290 290 290 290 290 290 290 290 289 290 289 289 290 291 292 293 293 294 294 294 293 293 294 295 295
295 295 294 294 293 293 293 292 292 291 291 290 290 289 289 289 289 288 288 288 288 288 288 288 288 288 288 288 288 288 288 288 289 290 290 290 290 290 290 290 291 292 292
294 294 293 292 291 290 290 289 289 288 288 288 288 287 287 286 286 286 286 286 286 286 286 286 286 286 286 286 286 286 286 287 287 288 288 287 287 288 288 287 288 289 289
293 292 290 289 288 288 288 287 287 286 286 285 285 285 285 285 284 285 285 284 284 284 284 284 284 284 284 284 285 285 285 286 286 286 286 286 285 285 285 287 287 287 287
290 289 288 287 287 286 286 285 284 284 284 283 283 282 283 282 283 284 284 283 282 282 282 282 282 282 282 283 284 284 285 285 286 286 286 285 285 285 286 285 285 284 282
288 287 286 285 284 283 283 282 282 282 282 282 282 281 281 281 282 282 283 282 281 282 282 282 282 282 282 282 282 283 284 284 285 285 286 285 285 284 284 283 284 284 284
286 284 283 283 282 282 282 281 281 281 280 280 280 280 280 279 280 281 281 281 281 281 280 281 281 281 281 282 282 282 282 283 283 284 284 283 282 282 281 281 281 283 283
284 283 282 281 281 280 280 279 279 279 279 278 278 278 278 279 279 280 280 280 280 280 280 280 281 280 281 282 282 282 282 283 283 283 284 283 282 281 281 281 282 282 279
282 281 280 279 279 278 278 278 278 278 277 277 278 278 277 277 277 279 279 279 279 279 280 279 279 280 280 282 282 282 283 282 282 283 284 283 281 281 280 280 280 280 281
280 279 279 278 278 277 277 277 277 277 277 277 277 277 277 276 276 277 278 278 279 279 278 278 278 279 280 280 281 283 283 282 282 283 283 282 280 279 278 277 277 277 277
279 279 278 277 277 277 277 276 276 276 276 276 276 275 275 275 275 276 277 278 278 278 277 277 277 277 277 278 279 281 281 280 280 280 280 278 277 276 276 276 275 274 274
279 278 278 277 277 276 276 276 276 275 274 274 274 274 274 274 274 275 276 277 277 277 276 276 275 275 275 275 276 278 278 276 277 278 278 276 276 274 274 273 272 272 272
278 278 277 276 276 275 275 275 274 273 273 274 274 274 274 273 273 275 276 276 276 276 275 273 272 272 272 273 273 274 274 273 274 275 275 273 273 271 271 270 270 270 269
278 277 276 275 274 274 274 274 273 273 273 274 274 274 273 273 274 275 275 276 275 275 273 270 269 269 269 270 270 271 271 272 273 273 272 272 271 270 269 269 268 268 267
277 275 274 274 274 273 273 273 273 273 272 272 273 273 272 273 273 273 274 275 273 271 269 267 267 267 268 269 269 270 270 270 271 271 271 271 270 269 268 268 267 267 266
275 274 273 273 272 272 271 271 271 273 271 271 270 270 271 271 271 272 273 272 269 267 265 265 265 265 266 267 268 269 269 269 269 270 269 269 269 268 267 267 266 266 266
274 273 273 272 272 271 270 269 268 268 269 271 271 269 269 269 270 271 270 267 266 265 263 263 263 264 265 266 267 267 268 268 268 268 268 268 268 267 266 266 266 266 265
273 273 272 271 270 270 269 269 268 268 267 268 269 269 268 267 267 268 266 265 264 263 263 262 263 263 264 265 265 266 266 267 267 267 267 267 267 266 266 265 265 265 264
273 272 271 271 270 270 269 269 268 267 267 266 266 266 266 266 266 264 264 263 263 262 262 262 262 262 262 263 264 264 265 266 266 266 266 266 265 265 265 265 264 264 264
272 271 271 270 269 268 268 268 267 266 266 265 265 265 265 265 263 263 262 262 262 262 261 261 261 261 261 262 263 263 264 264 265 264 264 264 264 264 264 264 264 263 263
271 271 270 269 269 268 268 267 266 266 266 265 264 264 263 263 262 262 262 262 261 261 261 261 261 261 261 261 262 262 262 263 264 264 263 263 263 263 263 263 262 262 262
271 270 269 269 268 268 267 267 266 266 265 264 264 263 263 262 262 262 261 261 261 261 261 261 260 261 261 261 261 261 261 262 262 263 263 262 262 262 262 262 262 261 261
270 269 268 268 268 268 267 267 266 265 264 264 263 263 263 262 262 261 261 261 260 260 260 260 260 260 260 260 261 261 261 262 262 262 262 262 262 262 261 261 261 261 260
269 268 268 268 268 267 266 266 265 265 264 263 263 263 263 262 261 261 261 260 260 260 260 260 260 260 260 260 260 261 261 262 262 262 262 262 261 261 261 261 260 260 260
268 268 268 267 266 266 265 265 264 263 263 263 263 263 262 261 261 261 261 260 260 259 259 260 260 260 260 260 260 261 261 261 261 261 262 261 261 261 261 261 260 260 259
Wind_Speed
13 12 13 13 13 11 12 14 15 16 18 18 19 20 20 21 20 21 20 20 21 22 22 23 24 24 24 22 22 21 21 17 13 37 23 25 30 28 28 24 24 25 24
11 10 11 11 11 12 14 16 17 19 19 20 21 22 22 23 23 22 22 23 23 25 25 24 26 25 25 23 22 22 22 22 20 25 27 26 29 28 28 25 23 23 24
8 7 9 11 12 14 16 17 18 18 19 20 20 21 22 22 22 21 23 25 25 25 25 25 26 25 27 25 24 24 25 25 25 25 29 26 28 28 29 26 24 23 23
6 8 10 12 14 15 16 16 16 17 17 18 18 19 19 20 19 21 24 25 26 26 26 26 25 25 26 27 27 27 28 26 25 26 25 25 23 26 22 23 24 23 24
7 8 11 11 12 12 14 15 16 16 16 17 17 18 19 20 19 23 24 26 27 29 29 28 27 25 22 21 23 23 25 23 22 20 22 22 20 17 16 15 19 22 22
6 9 10 11 12 13 13 13 14 15 16 18 19 21 21 22 18 21 21 24 23 24 23 25 25 23 25 24 22 23 23 24 23 20 21 18 21 21 22 23 23 8 3
7 8 9 10 11 11 12 14 15 17 17 17 19 20 21 22 20 22 22 26 27 26 26 26 26 25 25 28 30 28 26 25 23 25 25 22 23 21 16 18 20 18 17
4 6 8 9 10 11 12 14 15 16 16 18 19 20 22 22 20 22 24 25 24 23 27 27 28 28 29 31 33 33 31 29 29 30 27 28 27 25 20 21 22 24 22
5 7 8 8 9 10 12 14 15 17 17 20 19 20 20 22 22 23 26 25 24 25 26 27 28 32 31 31 32 32 34 31 30 30 27 21 18 16 19 19 18 16 8
5 6 7 7 9 10 12 13 14 15 16 17 18 19 18 23 22 22 24 24 25 27 26 28 28 30 35 34 34 32 29 31 35 33 34 26 25 22 20 17 13 11 14
5 6 7 7 8 9 11 12 14 15 16 18 18 19 21 21 23 21 23 25 26 29 29 30 31 34 37 40 37 39 29 37 38 33 31 30 25 19 16 13 13 12 13
5 6 6 7 9 10 11 11 12 14 17 18 20 21 22 23 22 21 22 22 27 28 29 32 35 40 41 40 38 34 36 36 32 32 23 26 21 16 13 11 12 12 11
6 6 7 8 8 9 11 13 14 15 16 18 17 17 22 24 25 23 24 26 26 29 27 33 36 38 37 36 32 34 34 32 27 27 23 23 22 13 9 7 7 7 8
6 7 7 8 8 8 10 11 12 13 15 18 17 17 19 20 24 25 26 28 26 28 30 31 33 33 31 31 34 30 34 31 26 22 18 14 11 9 7 6 7 6 7
8 7 7 8 9 9 10 11 12 10 10 15 16 18 20 21 21 26 27 30 29 31 35 35 33 30 30 29 30 29 30 26 19 15 11 8 7 7 6 6 6 6 5
8 8 8 8 9 10 12 14 9 7 10 9 10 14 18 17 22 26 27 27 30 28 28 26 26 25 26 28 28 29 25 23 19 15 11 8 7 6 6 6 7 7 6
9 8 8 8 8 9 10 12 19 18 15 12 12 18 16 19 23 25 26 30 24 25 26 24 22 23 25 26 26 26 23 26 19 14 10 8 7 7 7 7 7 6 6
10 9 9 8 9 9 9 9 11 14 22 27 23 22 19 23 24 23 26 29 35 31 28 24 24 24 25 26 26 25 25 24 19 15 12 10 9 8 8 8 7 6 7
10 9 9 8 9 9 9 10 11 13 16 21 27 26 27 25 22 20 25 25 26 29 29 26 25 25 24 24 25 25 24 22 19 16 14 12 11 9 9 7 7 6 6
10 9 8 9 9 9 10 11 12 14 17 20 23 26 29 28 25 32 28 26 26 27 29 28 26 27 24 24 25 24 24 22 19 16 14 13 11 9 8 7 7 7 6
10 9 10 10 9 10 10 11 13 16 18 20 22 22 19 23 26 26 27 27 25 26 27 28 27 28 25 24 25 25 23 22 19 16 15 13 11 9 7 5 6 6 9
10 10 10 10 10 9 10 11 14 16 18 21 23 23 19 21 22 25 26 26 25 24 23 26 27 26 24 23 24 24 23 22 20 17 14 12 9 7 5 4 5 6 9
10 9 9 9 9 9 11 12 14 16 18 20 21 23 24 24 24 25 25 25 24 24 23 24 25 26 24 23 21 20 20 20 19 16 13 11 8 5 4 4 6 7 8
9 9 9 8 9 10 12 14 15 16 18 19 20 22 23 24 25 25 25 24 24 24 23 24 24 24 23 23 22 20 18 16 15 14 10 9 7 5 4 5 6 7 9
9 9 8 8 9 11 13 14 16 17 19 20 22 23 25 25 26 25 25 24 24 24 25 25 24 23 23 23 21 19 17 14 12 11 9 7 5 5 5 5 7 8 9
8 8 8 9 10 11 13 15 17 18 20 22 24 25 26 26 26 26 25 25 25 26 25 24 24 22 22 21 20 18 15 12 12 12 9 6 5 4 5 6 7 8 9
Wind_Direction
76 73 68 59 50 36 26 16 8 359 354 349 345 341 340 336 335 333 330 329 327 324 323 322 317 318 315 312 308 301 289 271 260 281 282 292 295 300 300 296 288 290 284
78 69 60 46 30 17 9 3 355 350 347 345 342 340 338 337 336 335 333 330 330 328 326 323 319 320 314 311 308 302 294 287 272 277 287 290 294 301 301 294 290 283 283
87 67 46 27 12 4 357 354 351 348 349 346 346 347 346 344 342 339 337 335 333 329 327 325 322 321 317 316 312 305 301 294 282 270 282 287 287 292 295 289 285 282 277
68 40 23 12 5 360 356 354 353 354 351 350 350 347 345 344 343 341 340 336 333 332 331 331 328 327 323 320 317 314 313 302 291 276 276 281 284 294 284 280 282 281 278
38 20 14 6 2 359 356 358 356 356 356 355 353 351 351 352 353 349 347 340 338 337 335 335 333 330 329 324 315 310 310 300 290 285 285 290 289 283 267 277 267 275 272
21 17 8 4 2 1 357 356 355 359 1 0 0 360 360 358 353 349 346 341 337 335 332 335 332 331 332 331 324 315 309 308 300 276 277 278 284 285 287 281 272 252 274
12 7 2 0 360 360 357 358 0 3 1 0 1 358 355 355 349 346 342 337 338 335 334 330 325 324 326 325 322 317 312 304 299 295 285 280 280 284 294 299 263 247 249
1 357 356 356 355 351 354 357 357 358 1 2 360 360 356 356 350 347 344 342 337 335 334 331 325 324 320 320 318 317 314 310 306 302 293 289 284 287 287 286 275 268 260
336 338 340 340 341 347 353 356 359 357 1 0 359 359 357 354 351 349 346 343 338 334 330 328 325 322 322 321 316 311 307 309 309 303 292 276 273 265 278 292 274 247 251
304 313 323 332 342 352 351 354 357 357 357 356 357 0 0 356 354 350 348 343 336 332 331 328 325 323 323 321 312 304 300 310 310 298 296 272 266 270 274 282 281 273 245
296 318 329 340 344 345 352 355 351 354 353 359 357 360 0 358 354 348 349 344 336 332 328 328 325 323 321 317 311 307 300 309 309 306 278 266 253 255 263 272 277 277 273
314 323 338 341 346 348 347 347 355 354 356 359 359 355 353 352 350 347 344 342 337 333 328 324 322 322 319 315 311 305 305 305 303 299 274 257 245 246 253 267 274 275 266
326 333 331 335 339 337 339 345 352 357 1 359 353 343 341 340 343 348 345 338 333 329 325 322 321 323 323 319 315 309 307 307 298 284 270 257 251 249 247 255 265 268 271
313 310 317 324 331 333 344 346 346 352 353 352 341 334 332 333 340 344 336 334 332 331 329 323 325 328 330 328 326 319 317 314 302 287 280 263 247 229 228 240 258 259 267
293 303 313 316 322 331 340 347 339 344 343 330 333 334 332 328 331 331 332 329 331 329 327 328 335 337 333 331 329 327 328 325 314 304 289 260 241 233 242 244 250 239 240
286 297 304 310 318 326 332 333 346 332 328 328 332 332 326 322 327 331 331 329 328 330 330 336 331 330 328 327 327 326 329 331 325 318 300 273 256 251 253 252 247 232 226
286 289 296 305 315 324 334 341 335 334 341 338 335 337 336 330 332 333 331 328 329 334 341 332 326 325 324 326 327 328 326 331 328 321 312 301 291 284 267 260 247 233 222
275 282 289 298 304 310 318 330 330 331 331 330 336 341 340 337 335 334 332 328 336 340 340 329 323 325 325 325 326 328 329 334 333 325 318 311 299 289 275 265 246 217 189
265 267 281 292 295 299 308 312 318 322 323 324 329 335 341 343 336 327 332 339 336 331 331 325 325 325 323 324 326 328 333 334 331 326 318 312 302 290 278 265 240 216 191
258 262 273 278 281 284 293 305 314 319 324 326 329 334 337 340 326 330 337 339 336 331 329 327 325 325 323 324 329 332 334 337 336 330 321 311 300 289 278 260 233 208 194
246 256 264 270 279 286 297 310 317 319 320 323 325 331 327 321 325 331 334 336 336 331 329 328 324 327 327 326 329 332 332 332 334 329 322 312 300 285 276 255 231 204 174
241 247 254 264 272 280 294 305 311 315 318 320 324 328 329 330 333 333 332 331 332 330 331 330 327 327 328 327 329 328 327 328 330 329 321 311 299 282 265 237 192 173 167
239 248 257 265 276 287 296 304 309 313 317 321 323 326 332 334 333 329 328 330 331 332 333 333 330 329 330 328 325 325 322 323 323 323 319 309 293 272 247 215 187 169 163
237 251 258 267 276 290 299 306 310 313 316 318 323 327 330 329 327 327 327 329 330 331 333 335 333 331 330 328 325 321 318 320 320 323 317 307 287 258 222 200 183 170 160
247 249 257 269 282 291 298 305 309 313 315 320 325 327 327 326 324 326 328 329 328 328 332 333 332 331 329 327 324 321 316 313 313 316 314 305 282 249 212 193 178 163 161
241 245 255 269 282 292 297 302 308 313 318 322 324 323 321 320 322 324 327 328 327 327 328 329 332 332 329 326 324 323 319 315 318 319 308 290 273 237 208 192 183 175 172